sat.trackr.live / text

‹ back to catalog

TERRASAR-X

NORAD 31698 · 2007-026A

PAYLOAD ACTIVE UNKNOWN

§ Identity

Operator
Country
GER
Launch date
2007-06-15
Launch site
TYMSC
Launch vehicle
Mass (kg)
RCS (m²)
2.27

Purposes: earth_obs

External: N2YO · Heavens-Above · Gunter

§ Orbital elements

Epoch: 2026-05-24T14:39:40.005216Z

Period
94.79 min
Inclination
97.4452°
Eccentricity
0.0001773
Mean motion
15.19148033 rev/d
Perigee alt
507.2 km
Apogee alt
509.6 km
Semi-major
6,886.6 km
B*
1.8053e-5
RAAN
152.6536°
Arg perigee
80.0092°
Mean anomaly
280.1342°
Rev number
4,964

§ Raw data

TERRASAR-X1 31698U 07026A   26144.61087969  .00000312  00000+0  18053-4 0  99912 31698  97.4452 152.6536 0001773  80.0092 280.1342 15.19148033 49643

JSON: /api/v1/satellites/31698 · /tle

For live sub-satellite position, see the globe view (requires WebGL).

§ Visibility from observer

Set your observer location to see the next 7 days of passes ≥ 10°. The values pass through the URL so the page stays shareable.

No JS? Fill the form by hand. The geolocation button needs JavaScript.

§ Radio — SatNOGS DB

ModeDescriptionDownlinkUplink
FM S-band telemetry 2.280 GHz

1 transmitter · refreshed weekly from db.satnogs.org